Location: Dompnac
(44.5644°N, 4.1026°E)
Time: 17:30:42
(UTC+00:00)

Cosmos 1634 Rocket - Pass Details

Date: 23 January 2021
Orbit: 961 x 991 km, 82.9° (Epoch: 05 March)

Event Time Altitude Azimuth Distance (km) Brightness Sun altitude
Rises 17:40:35 0° 344° (NNW) 3,681 7.0 -10.8°
Reaches altitude 10° 17:43:16 10° 336° (NNW) 2,734 6.4 -11.3°
Maximum altitude 17:48:54 37° 272° (W) 1,488 5.7 -12.2°
Drops below altitude 10° 17:54:33 10° 208° (SSW) 2,735 7.0 -13.2°
Sets 17:57:15 0° 200° (SSW) 3,683 7.5 -13.7°
